Location: Wismar
(53.8979°N, 11.4516°E)
Time: 19:08:00
(UTC+01:00)

ISS - Visible Passes

Search period start: 20 March 2019 00:00
Search period end: 30 March 2019 00:00
Orbit: 406 x 411 km, 51.6° (Epoch: 21 March)

Date Brightness Start Highest point End Pass type
(mag) Time Alt. Az. Time Alt. Az. Time Alt. Az.
22 Mar -1.6 19:39:40 10° SSE 19:40:45 12° SE 19:40:45 12° SE visible
23 Mar -2.4 20:23:04 10° SW 20:25:12 25° S 20:25:12 25° S visible
24 Mar -2.3 19:32:32 10° SSW 19:35:04 20° SSE 19:36:39 15° ESE visible
24 Mar -1.9 21:07:57 10° WSW 21:09:26 23° SW 21:09:26 23° SW visible
25 Mar -3.3 20:17:04 10° SW 20:20:11 41° SSE 20:20:43 37° SE visible
25 Mar -0.8 21:53:16 10° W 21:53:28 11° W 21:53:28 11° W visible
26 Mar -2.8 19:26:14 10° SW 19:29:13 32° SSE 19:31:54 12° E visible
26 Mar -2.9 21:02:14 10° WSW 21:04:39 41° SW 21:04:39 41° SW visible
27 Mar -3.6 20:11:13 10° WSW 20:14:27 53° S 20:15:44 31° ESE visible
27 Mar -1.2 21:47:36 10° W 21:48:28 17° W 21:48:28 17° W visible
28 Mar -3.3 19:20:14 10° WSW 19:23:25 45° SSE 19:26:36 10° E visible
28 Mar -3.5 20:56:31 10° W 20:59:27 53° SSW 20:59:27 53° SSW visible
29 Mar -3.6 20:05:27 10° W 20:08:42 59° S 20:10:25 25° ESE visible
29 Mar -1.5 21:41:56 10° W 21:43:08 19° WSW 21:43:08 19° WSW visible
